Regional Weather Roundup
Issued by NWS

Home | Current Version | Previous Version | Text Only | Print | Product List | Glossary On
Versions: 1 2 3 4 5 6 7 8 9 10 11 12 13 14 15 16 17 18 19 20 21 22 23 24 25 26 27 28 29 30 31 32 33 34 35 36 37 38 39 40 41 42 43 44 45 46 47 48 49 50
000
ASUS46 KSTO 231915
RWRCA

NORTHERN AND CENTRAL CA REGIONAL WEATHER ROUNDUP
NATIONAL WEATHER SERVICE SACRAMENTO CA
1100 AM PST THU FEB 23 2017

NOTE: FAIR INDICATES FEW OR NO CLOUDS BELOW 12,000 FEET WITH NO
SIGNIFICANT WEATHER AND/OR OBSTRUCTIONS TO VISIBILITY.

CAZ001-003-232000-
NORTHWEST AREA

CITY           SKY/WX    TMP DP  RH WIND       PRES   REMARKS
CRESCENT CITY  SUNNY     44  36  73 NW6       30.33R
UKIAH          MOSUNNY   46  32  58 NW9       30.24S
$$

CAZ006-505>513-232000-
BAY AREA

CITY           SKY/WX    TMP DP  RH WIND       PRES   REMARKS
SANTA ROSA     MOSUNNY   49  30  48 NW15      30.23S
SAN RAFAEL     N/A       49  MM  MM MISG
NAPA           MOSUNNY   49  34  56 W5        30.24F
CONCORD        SUNNY     50  35  56 VRB7      30.24F
OAKLAND CITY   N/A      MM  MM  MM MISG
OAKLAND        MOSUNNY   51  33  50 NW9       30.25S
SAN FRAN CITY  N/A       49  MM  45 MISG
SAN FRAN ARPT  MOSUNNY   51  35  54 NE5       30.24F
LIVERMORE      SUNNY     48  31  51 SW8       30.22F
HAYWARD        SUNNY     51  30  44 NW10      30.24F
REDWOOD CITY   N/A       49  MM  58 MISG
MOFFETT ARPT   SUNNY     49  35  58 N8        30.25F
SAN JOSE ARPT  MOSUNNY   50  32  50 W8        30.24F
$$
CAZ034-037-514>518-232000-
CENTRAL COAST

CITY           SKY/WX    TMP DP  RH WIND       PRES   REMARKS
WATSONVILLE    SUNNY     53  31  42 VRB6G18   30.23F
SALINAS        SUNNY     51  30  44 W16G22    30.23F
MONTEREY       MOSUNNY   50  36  58 W13       30.25S
SAN LUIS OBISP SUNNY     56  33  42 N9        30.21S
SANTA MARIA    MOSUNNY   52  34  50 N15G24    30.21F
$$
CAZ015-016-232000-
NORTHERN SACRAMENTO VALLEY

CITY           SKY/WX    TMP DP  RH WIND       PRES   REMARKS
REDDING        SUNNY     49  29  46 N5        30.20F
RED BLUFF      SUNNY     49  31  49 N10       30.23S
OROVILLE       SUNNY     47  32  56 W5        30.24F
$$
CAZ016>018-232000-
SOUTHERN SACRAMENTO VALLEY

CITY           SKY/WX    TMP DP  RH WIND       PRES   REMARKS
AUBURN         MOSUNNY   43  32  65 CALM      30.19F
BEALE AFB      SUNNY     47  34  61 CALM      30.22F
LINCOLN        FAIR      46  32  57 W3        30.23F
MARYSVILLE     MOSUNNY   48  34  58 N7        30.24F
SAC INTL ARPT  MOSUNNY   49  35  58 NE6       30.23F
MATHER AIRPORT MOSUNNY   48  37  66 NW3       30.23F
DOWNTOWN SAC   N/A       50  MM  MM MISG
SAC EXEC ARPT  SUNNY     50  34  54 NW8       30.24S
VACAVILLE      SUNNY     50  33  52 CALM      30.24F
TRAVIS AFB     SUNNY     48  34  57 CALM      30.22F
$$
CAZ019>021-232000-
SAN JOAQUIN VALLEY

CITY           SKY/WX    TMP DP  RH WIND       PRES   REMARKS
STOCKTON       SUNNY     49  37  63 NW8       30.22F
MODESTO        SUNNY     51  34  52 N12G17    30.22F
MERCED         SUNNY     48  33  56 VRB6      30.22F
LEMOORE        SUNNY     49  33  54 NW9       30.23S
FRESNO         MOSUNNY   49  35  58 W12       30.21F
HANFORD        MOSUNNY   50  35  56 NW13      30.23S
BAKERSFIELD    CLOUDY    49  36  61 NW9       30.22S
$$
CAZ011-012-071-232000-
NORTHERN MOUNTAINS

CITY           SKY/WX    TMP DP  RH WIND       PRES   REMARKS
YREKA          PTSUNNY   35  26  69 N5        30.20S WCI  31
MOUNT SHASTA   MOSUNNY   33  19  56 MISG      30.13S
ALTURAS        PTSUNNY   28  20  71 CALM      30.08R
$$
CAZ011-012-071-232000-
SIERRA NEVADA MTNS

CITY           SKY/WX    TMP DP  RH WIND       PRES   REMARKS
BLUE CANYON    LGT SNOW  24  22  91 W6        30.05R FOG     WCI  17
TAHOE VLY ARPT PTSUNNY   24  12  60 CALM      29.98S
MAMMOTH LAKES  FAIR      26  -5  26 W8        29.94F WCI  18
$$




USA.gov is the U.S. government's official web portal to all federal, state and local government web resources and services.